Hourly Data Report for July 29, 2021

KITCHENER/WATERLOO
ONTARIO
Current Station Operator: NAVCAN

43°27'39.000" N
80°22'43.000" W
321.60 m
6144239
71368
YKF

Download Data

Hourly Data (July 2021)
Hourly Data Report for July 29, 2021
TIME
LST
Temp Definition
°C
Dew Point Definition
°C
Rel Hum Definition
%
Precip. Amount Definition
mm

Wind Dir Definition
10's deg

Wind Spd Definition
km/h
Visibility Definition
km
Stn Press Definition
kPa
Hmdx Definition


Wind Chill Definition


Weather Definition


00:00 13.1 11.8 92 0.0   0 16.1 97.73     LegendNANA
01:00 13.1 12.3 95 0.0   0 16.1 97.68     LegendNANA
02:00 12.7 12.1 96 0.0 LegendMM 4 16.1 97.64     LegendNANA
03:00 14.1 13.3 95 0.0 7 9 16.1 97.57     LegendNANA
04:00 14.6 13.0 90 0.0 7 8 16.1 97.50     LegendNANA
05:00 15.8 14.4 91 0.0 13 9 16.1 97.36     LegendNANA
06:00 16.3 15.8 97 0.8 10 4 9.7 97.36     Moderate Rain, Fog
07:00 17.0 16.7 98 12.1 13 9 2.4 97.35     Thunderstorms,Moderate Rain, Fog
08:00 18.2 17.9 98 1.5 18 15 8.1 97.14     Fog
09:00 20.1 19.0 93 0.2 22 9 16.1 97.10 27   LegendNANA
10:00 22.1 19.9 87 0.0 21 13 16.1 97.06 30   LegendNANA
11:00 24.3 19.7 75 0.0 30 17 16.1 97.05 32   LegendNANA
12:00 24.3 19.0 72 0.0 31 15 16.1 97.02 31   LegendNANA
13:00 26.4 20.0 67 0.0 30 22 16.1 96.98 34   LegendNANA
14:00 26.1 19.3 66 0.0 29 26 16.1 96.97 33   LegendNANA
15:00 26.5 19.3 64 0.0 29 26 16.1 97.00 34   LegendNANA
16:00 25.2 18.4 66 0.0 29 26 16.1 97.07 32   LegendNANA
17:00 23.1 18.0 73 0.0 31 22 16.1 97.12 29   LegendNANA
18:00 22.5 17.3 72 0.0 31 22 16.1 97.15 28   LegendNANA
19:00 21.2 16.9 76 0.0 31 17 16.1 97.18 26   LegendNANA
20:00 19.6 16.7 83 0.0 31 15 16.1 97.23     LegendNANA
21:00 18.4 16.6 89 0.0 31 15 16.1 97.32     LegendNANA
22:00 17.8 16.8 94 0.0 31 15 16.1 97.37     LegendNANA
23:00 17.2 16.6 96 0.0 30 13 16.1 97.37     LegendNANA

Notes on Data Quality.

Legend

  • E = Estimated
  • M = Missing
  • NA = Not Available*
  • [empty] = Indicates an unobserved value
Date modified: